• In Belarus
  • List of Countries
  • For 7 days
  • Water Temperature
  • Weather Map
  • Weather Widgets
  • user-avatar
    Login

    Hourly Weather Kzyl-Yar

    Today, 18 November, Monday

    Time Temperature Precipitation Wind Pressure Humidity
    00:00 +1°C° 0 mm 2 mps 763 mmHg 92%
    01:00 +2°C° 0 mm 1 mps 763 mmHg 92%
    02:00 +2°C° 0 mm 1 mps 763 mmHg 94%
    03:00 +2°C° 0 mm 1 mps 762 mmHg 95%
    04:00 +1°C° 0 mm 2 mps 762 mmHg 97%
    05:00 +2°C° 0.1 mm 1 mps 762 mmHg 97%
    06:00 +2°C° 0.1 mm 1 mps 762 mmHg 97%
    07:00 +2°C° 0.1 mm 1 mps 761 mmHg 97%
    08:00 +2°C° 0.1 mm 1 mps 761 mmHg 97%
    09:00 +1°C° 0.1 mm 2 mps 761 mmHg 97%
    10:00 +2°C° 0 mm 1 mps 761 mmHg 97%
    11:00 +2°C° 0 mm 1 mps 761 mmHg 97%
    12:00 +2°C° 0 mm 1 mps 761 mmHg 96%
    13:00 +3°C° 0 mm 1 mps 761 mmHg 96%
    14:00 +3°C° 0 mm 1 mps 760 mmHg 97%
    15:00 +2°C° 0 mm 2 mps 760 mmHg 97%
    16:00 +1°C° 0 mm 2 mps 760 mmHg 98%
    17:00 +1°C° 0.4 mm 2 mps 759 mmHg 98%
    18:00 +1°C° 0.4 mm 2 mps 759 mmHg 98%
    19:00 +2°C° 0.4 mm 1 mps 758 mmHg 98%
    20:00 +3°C° 1 mm 1 mps 758 mmHg 98%
    21:00 +3°C° 1 mm 1 mps 758 mmHg 98%
    22:00 +3°C° 1 mm 1 mps 758 mmHg 98%
    23:00 +3°C° 0.8 mm 1 mps 758 mmHg 98%

    Tomorrow, 19 November, Tuesday

    Time Temperature Precipitation Wind Pressure Humidity
    00:00 +3°C° 0.8 mm 1 mps 757 mmHg 98%
    01:00 +3°C° 0.8 mm 1 mps 757 mmHg 98%
    02:00 +2°C° 0.1 mm 2 mps 758 mmHg 98%
    03:00 0°C° 0.1 mm 3 mps 758 mmHg 97%
    04:00 0°C° 0.1 mm 3 mps 758 mmHg 96%
    05:00 -2°C° 0.1 mm 4 mps 759 mmHg 95%
    06:00 -2°C° 0.1 mm 4 mps 759 mmHg 94%
    07:00 -3°C° 0.1 mm 4 mps 759 mmHg 93%
    08:00 -4°C° 0 mm 4 mps 760 mmHg 90%
    09:00 -5°C° 0 mm 5 mps 760 mmHg 87%
    10:00 -6°C° 0 mm 5 mps 761 mmHg 83%
    11:00 -7°C° 0 mm 5 mps 761 mmHg 80%
    12:00 -7°C° 0 mm 5 mps 762 mmHg 76%
    13:00 -8°C° 0 mm 6 mps 762 mmHg 73%
    14:00 -9°C° 0 mm 6 mps 763 mmHg 70%
    15:00 -10°C° 0 mm 6 mps 763 mmHg 67%
    16:00 -11°C° 0 mm 6 mps 764 mmHg 64%
    17:00 -11°C° 0 mm 6 mps 764 mmHg 62%
    18:00 -12°C° 0 mm 6 mps 765 mmHg 59%
    19:00 -14°C° 0 mm 7 mps 765 mmHg 57%
    20:00 -14°C° 0 mm 7 mps 766 mmHg 57%
    21:00 -15°C° 0 mm 7 mps 766 mmHg 58%
    22:00 -15°C° 0 mm 7 mps 767 mmHg 59%
    23:00 -15°C° 0 mm 6 mps 767 mmHg 59%

    Day after tomorrow, 20 November, Wednesday

    Time Temperature Precipitation Wind Pressure Humidity
    00:00 -16°C° 0 mm 6 mps 768 mmHg 58%
    01:00 -16°C° 0 mm 6 mps 768 mmHg 58%
    02:00 -16°C° 0 mm 6 mps 769 mmHg 59%
    03:00 -16°C° 0 mm 6 mps 769 mmHg 59%
    04:00 -17°C° 0 mm 6 mps 770 mmHg 59%
    05:00 -17°C° 0 mm 6 mps 770 mmHg 61%
    06:00 -17°C° 0 mm 5 mps 770 mmHg 62%
    07:00 -17°C° 0 mm 5 mps 771 mmHg 63%
    08:00 -17°C° 0 mm 5 mps 771 mmHg 64%
    09:00 -18°C° 0 mm 5 mps 772 mmHg 64%
    10:00 -18°C° 0 mm 5 mps 773 mmHg 64%
    11:00 -17°C° 0 mm 5 mps 773 mmHg 62%
    12:00 -16°C° 0 mm 4 mps 773 mmHg 60%
    13:00 -15°C° 0 mm 4 mps 773 mmHg 58%
    14:00 -15°C° 0 mm 4 mps 773 mmHg 60%
    15:00 -15°C° 0 mm 4 mps 774 mmHg 61%
    16:00 -15°C° 0 mm 4 mps 774 mmHg 63%
    17:00 -15°C° 0 mm 4 mps 774 mmHg 65%
    18:00 -14°C° 0 mm 3 mps 774 mmHg 66%
    19:00 -14°C° 0 mm 3 mps 774 mmHg 68%
    20:00 -14°C° 0 mm 3 mps 775 mmHg 68%
    21:00 -14°C° 0 mm 3 mps 775 mmHg 67%
    22:00 -13°C° 0 mm 2 mps 775 mmHg 67%
    23:00 -13°C° 0 mm 2 mps 775 mmHg 66%

    21 November, Thursday

    Time Temperature Precipitation Wind Pressure Humidity
    00:00 -13°C° 0 mm 2 mps 775 mmHg 65%
    01:00 -11°C° 0 mm 1 mps 775 mmHg 65%
    02:00 -11°C° 0 mm 1 mps 775 mmHg 64%
    03:00 -11°C° 0 mm 1 mps 775 mmHg 64%
    04:00 -11°C° 0 mm 1 mps 776 mmHg 63%
    05:00 -11°C° 0 mm 1 mps 776 mmHg 63%
    06:00 -11°C° 0 mm 1 mps 776 mmHg 63%
    07:00 -11°C° 0 mm 1 mps 776 mmHg 64%
    08:00 -10°C° 0 mm 1 mps 776 mmHg 62%
    09:00 -10°C° 0 mm 1 mps 776 mmHg 61%
    10:00 -10°C° 0 mm 1 mps 776 mmHg 60%
    11:00 -9°C° 0 mm 1 mps 775 mmHg 57%
    12:00 -8°C° 0 mm 1 mps 775 mmHg 54%
    13:00 -7°C° 0 mm 1 mps 775 mmHg 50%
    14:00 -7°C° 0 mm 1 mps 775 mmHg 51%
    15:00 -7°C° 0 mm 1 mps 775 mmHg 52%
    16:00 -7°C° 0 mm 1 mps 774 mmHg 53%
    17:00 -7°C° 0 mm 1 mps 774 mmHg 53%
    18:00 -7°C° 0 mm 1 mps 774 mmHg 54%
    19:00 -8°C° 0 mm 2 mps 774 mmHg 55%
    20:00 -8°C° 0 mm 1 mps 773 mmHg 54%
    21:00 -8°C° 0 mm 1 mps 773 mmHg 53%
    22:00 -8°C° 0 mm 1 mps 773 mmHg 52%
    23:00 -8°C° 0 mm 1 mps 773 mmHg 54%

    22 November, Friday

    Time Temperature Precipitation Wind Pressure Humidity
    00:00 -9°C° 0 mm 2 mps 773 mmHg 55%
    01:00 -9°C° 0 mm 2 mps 773 mmHg 57%
    02:00 -9°C° 0 mm 2 mps 772 mmHg 58%
    03:00 -9°C° 0 mm 2 mps 772 mmHg 60%
    04:00 -9°C° 0 mm 2 mps 772 mmHg 61%
    05:00 -9°C° 0 mm 2 mps 772 mmHg 62%
    06:00 -9°C° 0 mm 2 mps 772 mmHg 63%
    07:00 -9°C° 0 mm 2 mps 771 mmHg 63%
    08:00 -9°C° 0 mm 2 mps 771 mmHg 61%
    09:00 -8°C° 0 mm 2 mps 771 mmHg 60%
    10:00 -9°C° 0 mm 3 mps 771 mmHg 58%
    11:00 -8°C° 0 mm 3 mps 771 mmHg 55%
    12:00 -7°C° 0 mm 3 mps 770 mmHg 52%
    13:00 -6°C° 0 mm 3 mps 770 mmHg 49%
    14:00 -7°C° 0 mm 3 mps 770 mmHg 51%
    15:00 -7°C° 0 mm 3 mps 769 mmHg 52%
    16:00 -7°C° 0 mm 3 mps 769 mmHg 54%
    17:00 -7°C° 0 mm 3 mps 769 mmHg 55%
    18:00 -8°C° 0 mm 3 mps 768 mmHg 56%
    19:00 -8°C° 0 mm 3 mps 768 mmHg 58%
    20:00 -8°C° 0 mm 3 mps 768 mmHg 58%
    21:00 -8°C° 0 mm 3 mps 767 mmHg 58%
    22:00 -8°C° 0 mm 3 mps 767 mmHg 58%
    23:00 -8°C° 0 mm 3 mps 767 mmHg 59%

    23 November, Saturday

    Time Temperature Precipitation Wind Pressure Humidity
    00:00 -9°C° 0 mm 3 mps 767 mmHg 59%
    01:00 -9°C° 0 mm 3 mps 767 mmHg 59%
    02:00 -9°C° 0 mm 3 mps 766 mmHg 60%
    03:00 -9°C° 0 mm 3 mps 766 mmHg 60%
    04:00 -9°C° 0 mm 3 mps 766 mmHg 60%
    05:00 -8°C° 0 mm 2 mps 766 mmHg 61%
    06:00 -8°C° 0 mm 2 mps 765 mmHg 62%
    07:00 -8°C° 0 mm 2 mps 765 mmHg 62%
    08:00 -8°C° 0 mm 2 mps 765 mmHg 61%
    09:00 -7°C° 0 mm 2 mps 765 mmHg 61%
    10:00 -7°C° 0 mm 2 mps 765 mmHg 60%
    11:00 -7°C° 0 mm 2 mps 765 mmHg 62%
    12:00 -6°C° 0 mm 2 mps 765 mmHg 63%
    13:00 -6°C° 0 mm 2 mps 765 mmHg 65%
    14:00 -6°C° 0 mm 2 mps 765 mmHg 69%
    15:00 -6°C° 0 mm 2 mps 764 mmHg 73%
    16:00 -4°C° 0 mm 1 mps 764 mmHg 77%
    17:00 -4°C° 0 mm 1 mps 764 mmHg 80%
    18:00 -6°C° 0 mm 1 mps 764 mmHg 83%
    19:00 -7°C° 0 mm 2 mps 765 mmHg 87%
    20:00 -6°C° 0 mm 1 mps 764 mmHg 89%
    21:00 -6°C° 0 mm 1 mps 764 mmHg 91%
    22:00 -6°C° 0 mm 1 mps 764 mmHg 94%
    23:00 -6°C° 0 mm 1 mps 764 mmHg 94%
    Show more